Location: Little Italy
(37.8008°N, 122.4108°W)
Time: 21:42:40
(UTC+00:00)

Cosmos 2360 - Pass Details

Date: 29 October 2020
Orbit: 847 x 855 km, 70.8° (Epoch: 24 November)

Event Time Altitude Azimuth Distance (km) Brightness Sun altitude
Exits shadow 13:15:32 10° 324° (NW) 2,470 6.2 -15.7°
Maximum altitude 13:20:52 44° 254° (WSW) 1,159 4.5 -14.7°
Drops below altitude 10° 13:26:12 10° 184° (S) 2,462 6.7 -13.7°
Sets 13:28:44 0° 177° (S) 3,393 7.5 -13.2°
